カタログに戻る

FREGAT DEB

LostUNKNOWN
NORAD 46616·DEBRIS·🇷🇺 Russia

打ち上げ Jul 18, 2011 から Baikonur Cosmodrome

Loading…

次のパス (今後24時間)

TLE

古いSource: Space-Track

元期: Dec 3, 2021, 02:42 UTC

1 46616U 11037MG  21337.11264455 -.00105519  00000-0 -57057+0 0  9995
2 46616  50.5761   6.9546 1788676 142.7286 231.2194 10.35078672 44012

AllMySatでFREGAT DEBをリアルタイム追跡

Download on the App Store